This demonstration page uses our WeatherBlox Daily Observations layout. Learn more.

39.92423, -83.80882

Hourly Observations for September 14, 2019

Temp ( °F °C ) Dew Point ( °F °C ) Humidity (%) Winds ( mph kmh ) Pressure ( in mb ) Visibility ( mi km ) Precip ( " mm )
12:56 am 00:56 Mostly Clear 74 23.3 64 17.8 71 71 WNW 9 15 30.12 1020 10 16.09344 0 0
1:56 am 01:56 Clear 71 21.7 62 16.7 73 73 NW 9 15 30.15 1021 10 16.09344 0 0
2:56 am 02:56 Clear 68 20 61 16.1 78 78 NNW 10 17 30.15 1021 10 16.09344 0 0
3:56 am 03:56 Clear 66 18.9 61 16.1 84 84 NNW 8 13 30.15 1021 10 16.09344 0 0
4:56 am 04:56 Clear 64 17.8 60 15.6 87 87 NW 7 11 30.18 1022 10 16.09344 0 0
5:56 am 05:56 Mostly Cloudy 63 17.2 60 15.6 90 90 NW 5 7 30.18 1022 10 16.09344 0 0
6:56 am 06:56 Clear 59 15 58 14.4 96 96 W 5 7 30.21 1023 10 16.09344 0 0
7:56 am 07:56 Sunny 60 15.6 59 15 96 96 WNW 6 9 30.21 1023 10 16.09344 0 0
8:56 am 08:56 Sunny 62 16.7 59 15 90 90 WNW 8 13 30.24 1024 10 16.09344 0 0
9:56 am 09:56 Sunny 64 17.8 59 15 84 84 NW 7 11 30.27 1025 10 16.09344 0 0
10:56 am 10:56 Sunny 68 20 57 13.9 68 68 W 7 11 30.27 1025 10 16.09344 0 0
11:56 am 11:56 Partly Cloudy 72 22.2 55 12.8 55 55 W 7 11 30.27 1025 10 16.09344 0 0
12:56 pm 12:56 Sunny 75 23.9 55 12.8 50 50 WNW 6 9 30.27 1025 10 16.09344 0 0
1:56 pm 13:56 Sunny 75 23.9 55 12.8 50 50 W 12 19 30.24 1024 10 16.09344 0 0
2:56 pm 14:56 Sunny 78 25.6 54 12.2 43 43 WNW 14 22 30.24 1024 10 16.09344 0 0
3:56 pm 15:56 Sunny 79 26.1 54 12.2 42 42 W 9 15 30.21 1023 10 16.09344 0 0
4:56 pm 16:56 Sunny 81 27.2 52 11.1 37 37 WNW 15 24 30.21 1023 10 16.09344 0 0
5:56 pm 17:56 Sunny 80 26.7 53 11.7 39 39 WNW 7 11 30.18 1022 10 16.09344 0 0
6:56 pm 18:56 Sunny 79 26.1 55 12.8 44 44 Calm 30.18 1022 10 16.09344 0 0
7:56 pm 19:56 Clear 72 22.2 56 13.3 57 57 Calm 30.18 1022 10 16.09344 0 0
8:56 pm 20:56 Clear 67 19.4 56 13.3 68 68 Calm 30.21 1023 10 16.09344 0 0
9:56 pm 21:56 Clear 69 20.6 55 12.8 61 61 SSW 5 7 30.21 1023 10 16.09344 0 0
10:56 pm 22:56 Clear 65 18.3 56 13.3 73 73 SSW 3 6 30.24 1024 10 16.09344 0 0
11:56 pm 23:56 Clear 60 15.6 56 13.3 86 86 Calm 30.24 1024 10 16.09344 0 0

Powered by AerisWeather